STARLINK-35479, 66326

Orbit data source: Space-Track

STARLINK-35479, 66326 is a payload satellite owned by SpaceX/Seattle (US) in LEO that was launched on Thu, 06 Nov 2025 UTC via an FALCON 9 launch vehicle from the Air Force Eastern Test Range (AFETR). Payload-class satellites include a variety of spacecraft equipped with specific instruments for various scientific and technological missions. These include communications satellites like Starlink; space stations such as the ISS; scientific satellites like the Hubble; Earth observation satellites from companies like Planet Labs, Umbra, and HawkEye 360; GPS; miniature CubeSats for education and research; and military/defense satellites.

Loading next visibility...
Identifier
66326, 2025-253H
Orbit
LEO
Country
Flag of USUS
Related business
Manufacturer
SpaceX/Seattle
Mission
Operational Commercial Communications
Bus & Motor
STARLINK V2MO, Unknown motor
Mass
575 kg wet, ~530 kg dry
Launch date (UTC)
2025-11-06 (7 months ago)
Launch vehicle
FALCON 9
Launch site
Air Force Eastern Test Range (AFETR)
Object type
Payload
Rocket body
Debris
Shape & HBR
Box + 2 Pan, 17.7 m
Radar Cross Section
36.964 m², Large (>1 m²)

Expand to show TLE details & history
Last TLE update: 17 hours ago

TLE from 17 hours ago
0 STARLINK-35479
1 66326U 25253H   26170.49492479  .00026551  00000-0  97051-3 0  9998
2 66326  43.0037 357.6186 0002159 264.1880  95.8726 15.27592347 35813
Epoch: 2026-06-19T11:52Z
TLE epoch observation values (Epoch: 2026-06-19T11:52:41.501Z)
Latitude
-0.00001°
Longitude
-88.27742°
Altitude
482.94 km
Speed
7.626 km/s
True Right ascension
23h 50m 28s
True Declination
0° 00' 00"
Sunlit
Object was in daylight at epoch
Visualization orbit readout
Latitude
Unknown
Longitude
Unknown
Altitude
Unknown
Speed
Unknown
Apparent Right ascension
Unknown
Apparent Declination
Unknown
Sunlit
N/A
Visualization observer readout
Local Sidereal Time
16:04:26
Azimuth
Unknown
Elevation
Unknown
Doppler factor
Unknown
Orbital elements
Apogee altitude
486.438 km
Perigee altitude
483.475 km
Semi-major axis
6,863.094 km
Eccentricity
0.00022
Inclination
43.0037°
RAAN
357.6186°
Arg. of periapsis
264.188°
True anomaly
95.89721°
Mean anomaly
95.8726°
Eccentric anomaly
95.8849°
Mean motion
3.81736 °/min
Orbital period
94.31 mins
BSTAR
0.00097051
Loading maneuver chart data...
Computing Atmospheric mass density...
Loading historical data...
Loading historical data...
Loading historical data...
Loading historical data...
Loading historical data...
Loading historical data...
Loading historical data...

Documentation

Showing up to 5 results
|